FW0303 Weather Reports


Display with metric or nautical units.
time (UTC)temp
F
wind
direction
speed
MPH
gust
MPH
rain 1hr
in
rain 24hr
in
rain mn
in
humidity
%
barometer
mb
20260506171557 65 341 0.0 2.0 0.02 0.04 0.04 82 1007.3
20260506170058 65 342 0.0 2.0 0.02 0.04 0.04 84 1007.7
20260506164603 63 342 0.0 3.0 0.04 0.04 0.04 83 1008.0
20260506163044 63 338 0.0 3.0 0.04 0.04 0.04 82 1008.5
20260506161541 63 328 0.0 2.0 0.02 0.02 0.02 80 1008.8
20260506160047 64 328 0.0 2.0 0.01 0.01 0.01 77 1009.2
20260506154548 66 310 0.0 3.0 0.00 0.00 0.00 74 1009.3
20260506153038 67 319 0.0 4.0 0.00 0.00 0.00 70 1009.0
20260506151537 68 331 0.0 4.0 0.00 0.00 0.00 71 1009.1
20260506150037 68 318 0.0 3.0 0.00 0.00 0.00 67 1009.0
20260506144535 68 57 1.0 6.0 0.00 0.00 0.00 65 1009.3
20260506143036 69 296 1.0 5.0 0.00 0.00 0.00 64 1009.3
20260506141534 69 305 1.0 4.0 0.00 0.00 0.00 67 1009.4
20260506140029 68 5 1.0 8.0 0.00 0.00 0.00 67 1009.2
20260506134527 68 20 0.0 4.0 0.00 0.00 0.00 68 1009.2
20260506133027 68 321 1.0 7.0 0.00 0.00 0.00 67 1009.3
20260506131532 68 20 1.0 5.0 0.00 0.00 0.00 67 1009.4
20260506130023 67 315 1.0 6.0 0.00 0.00 0.00 69 1009.2
20260506124526 67 5 0.0 5.0 0.00 0.00 0.00 70 1009.3
20260506123029 65 54 1.0 5.0 0.00 0.00 0.00 72 1009.1
20260506121520 65 308 1.0 5.0 0.00 0.00 0.00 71 1009.4
20260506120022 65 339 0.0 4.0 0.00 0.00 0.00 72 1009.3
20260506114517 64 347 1.0 4.0 0.00 0.00 0.00 72 1009.6
20260506113016 64 30 1.0 4.0 0.00 0.00 0.00 74 1009.6
20260506111515 62 9 0.0 3.0 0.00 0.00 0.00 77 1009.6
20260506110012 61 19 0.0 2.0 0.00 0.00 0.00 77 1009.4
20260506104510 61 30 0.0 3.0 0.00 0.00 0.00 78 1009.4
20260506103023 60 31 0.0 0.0 0.00 0.00 0.00 78 1009.3
20260506101506 61 31 0.0 0.0 0.00 0.00 0.00 77 1009.5
20260506100006 61 31 0.0 4.0 0.00 0.00 0.00 77 1009.2
20260506094513 61 9 0.0 3.0 0.00 0.00 0.00 77 1009.2
20260506093005 61 15 0.0 4.0 0.00 0.00 0.00 78 1009.1
20260506091504 61 5 1.0 3.0 0.00 0.00 0.00 78 1009.2
20260506090002 61 31 0.0 1.0 0.00 0.00 0.00 77 1009.4
20260506084600 61 325 0.0 3.0 0.00 0.00 0.00 77 1009.4
20260506083100 61 329 0.0 2.0 0.00 0.00 0.00 77 1009.5
20260506081602 61 282 0.0 2.0 0.00 0.00 0.00 77 1009.6
20260506080116 62 282 0.0 3.0 0.00 0.00 0.00 76 1009.5
20260506073100 62 295 0.0 1.0 0.00 0.00 0.00 76 1009.4
20260506071554 62 300 0.0 2.0 0.00 0.00 0.00 76 1009.6
20260506070113 62 300 0.0 2.0 0.00 0.00 0.00 75 1009.7
20260506061545 64 286 0.0 2.0 0.00 0.00 0.00 73 1009.9
20260506044550 65 32 1.0 5.0 0.00 0.00 0.00 68 1010.4
20260506043034 65 27 0.0 3.0 0.00 0.00 0.00 68 1010.4
20260506041533 66 20 0.0 2.0 0.00 0.00 0.00 67 1010.4
20260506040028 66 20 0.0 3.0 0.00 0.00 0.00 66 1010.3
20260506034529 67 19 0.0 6.0 0.00 0.00 0.00 64 1010.3
20260506033028 67 44 0.0 5.0 0.00 0.00 0.00 64 1010.3
20260506031529 67 24 0.0 6.0 0.00 0.00 0.00 64 1010.2
20260506030027 67 25 0.0 2.0 0.00 0.00 0.00 63 1010.3
20260506024533 67 333 0.0 2.0 0.00 0.00 0.00 62 1010.3
20260506023027 68 9 0.0 2.0 0.00 0.00 0.00 61 1010.4
20260506021526 68 22 1.0 5.0 0.00 0.00 0.00 60 1010.1
20260506020025 68 5 1.0 3.0 0.00 0.00 0.00 60 1010.2
20260506014526 69 65 0.0 3.0 0.00 0.00 0.00 59 1010.1
20260506013025 70 196 1.0 8.0 0.00 0.00 0.00 57 1009.9
20260506011526 70 44 0.0 4.0 0.00 0.00 0.00 56 1009.8
20260506010023 71 24 1.0 5.0 0.00 0.00 0.00 54 1009.6
20260506004522 71 24 0.0 3.0 0.00 0.00 0.00 50 1009.5
20260506003023 72 24 0.0 2.0 0.00 0.00 0.00 48 1009.2
20260506001521 74 348 0.0 5.0 0.00 0.00 0.00 44 1009.0
20260506000020 74 36 0.0 6.0 0.00 0.00 0.00 43 1008.8
20260505234544 75 19 0.0 4.0 0.00 0.00 0.00 43 1008.9
20260505233021 76 319 1.0 6.0 0.00 0.00 0.00 43 1008.7
20260505231519 77 26 0.0 6.0 0.00 0.00 0.00 41 1008.5
20260505230018 78 55 0.0 8.0 0.00 0.00 0.00 38 1008.3
20260505224526 79 346 1.0 4.0 0.00 0.00 0.00 35 1008.2
20260505223016 79 223 0.0 0.0 0.00 0.00 0.00 33 1008.0
20260505221515 80 321 0.0 0.0 0.00 0.00 0.00 32 1008.1
20260505220014 81 301 0.0 0.0 0.00 0.00 0.00 30 1007.9
20260505214520 81 205 0.0 0.0 0.00 0.00 0.00 28 1007.8
20260505213014 83 347 1.0 6.0 0.00 0.00 0.00 31 1007.8
20260505211513 83 17 2.0 8.0 0.00 0.00 0.00 27 1007.9
20260505210014 83 259 2.0 8.0 0.00 0.00 0.00 29 1007.5
20260505204522 83 193 3.0 11.0 0.00 0.00 0.00 31 1007.4
20260505203009 83 348 1.0 9.0 0.00 0.00 0.00 32 1007.4
20260505201506 83 171 2.0 5.0 0.00 0.00 0.00 34 1007.5
20260505200012 83 146 1.0 6.0 0.00 0.00 0.00 35 1007.5
20260505194504 83 75 3.0 11.0 0.00 0.00 0.00 31 1007.7
20260505193002 84 317 3.0 11.0 0.00 0.00 0.00 31 1007.9
20260505191600 84 28 2.0 10.0 0.00 0.00 0.00 31 1008.3
20260505184556 84 236 3.0 12.0 0.00 0.00 0.00 38 1008.3
20260505183054 83 325 2.0 8.0 0.00 0.00 0.00 36 1009.0
20260505181551 84 300 3.0 6.0 0.00 0.00 0.00 34 1009.3
20260505180050 83 28 1.0 9.0 0.00 0.00 0.00 38 1009.3
20260505174549 84 52 1.0 5.0 0.00 0.00 0.00 38 1009.3
20260505173048 83 35 2.0 5.0 0.00 0.00 0.00 40 1009.6